Hourly Data Report for April 29, 2018

CLYDE RIVER A
NUNAVUT
Current Station Operator: NAVCAN

70°29'09.000" N
68°31'01.000" W
26.50 m
2400804
71090
YCY

Download Data

Hourly Data (April 2018)
Hourly Data Report for April 29, 2018
TIME
LST
Temp Definition
°C
Dew Point Definition
°C
Rel Hum Definition
%
Precip. Amount Definition
mm

Wind Dir Definition
10's deg

Wind Spd Definition
km/h
Visibility Definition
km
Stn Press Definition
kPa
Hmdx Definition


Wind Chill Definition


Weather Definition


00:00 -13.8 -19.4 63 0.0 22 13 16.1 100.32   -21 LegendNANA
01:00 -18.9 -22.9 71 0.0 2 8 16.1 100.41   -25 LegendNANA
02:00 -19.4 -23.0 74 0.0 31 8 16.1 100.47   -26 LegendNANA
03:00 -20.0 -23.2 76 0.0 1 4 16.1 100.51   -23 LegendNANA
04:00 -20.7 -23.8 77 0.0 2 5 16.1 100.51   -25 LegendNANA
05:00 -18.4 -21.8 75 0.0 6 8 16.1 100.50   -24 LegendNANA
06:00 -18.1 -21.4 76 0.0 34 13 16.1 100.52   -26 LegendNANA
07:00 -16.7 -20.3 74 0.0 7 8 16.1 100.53   -22 LegendNANA
08:00 -14.5 -18.8 70 0.0 26 5 16.1 100.52   -18 LegendNANA
09:00 -12.8 -17.2 70 0.0 LegendMM 4 16.1 100.51   -15 LegendNANA
10:00 -11.0 -15.8 68 0.0 11 15 16.1 100.47   -18 LegendNANA
11:00 -10.7 -15.3 69 0.0 16 15 16.1 100.46   -18 LegendNANA
12:00 -9.3 -14.5 66 0.0 19 11 16.1 100.43   -15 LegendNANA
13:00 -9.3 -15.0 64 0.0 18 11 16.1 100.40   -15 LegendNANA
14:00 -9.5 -13.9 71 0.0 14 17 16.1 100.38   -17 LegendNANA
15:00 -10.2 -13.2 79 0.0 12 22 16.1 100.35   -18 Snow
16:00 -10.4 -12.3 86 0.0 14 18 9.7 100.30   -18 Snow
17:00 -10.7 -12.2 89 0.0 14 15 4.8 100.24   -18 Snow
18:00 -11.7 -13.2 89 0.0 14 15 12.9 100.18   -19 Snow
19:00 -12.3 -13.6 90 0.0 11 5 16.1 100.11   -16 Snow
20:00 -12.9 -14.2 90 0.0 13 15 12.9 100.06   -20 Snow
21:00 -12.5 -13.8 90 0.0 13 13 4.8 100.00   -19 Snow
22:00 -11.9 -13.0 92 0.0 13 13 1.6 99.92   -19 Snow
23:00 -11.5 -12.8 91 0.0 13 17 2.8 99.84   -19 Snow

Notes on Data Quality.

Legend

  • E = Estimated
  • M = Missing
  • NA = Not Available*
  • [empty] = Indicates an unobserved value
Date modified: